Location: Oroua River
(40.4333°S, 175.4333°E)
Time: 13:51:01
(UTC+00:00)

CZ-2C R/B - Pass Details

Date: 03 February 2023
Orbit: 489 x 546 km, 97.8° (Epoch: 22 March)

Event Time Altitude Azimuth Distance (km) Brightness Sun altitude
Rises 16:38:33 0° 10° (N) 2,705 6.1 -9.4°
Reaches altitude 10° 16:40:41 10° 9° (N) 1,813 5.2 -9.1°
Maximum altitude 16:44:36 77° 283° (WNW) 564 2.7 -8.4°
Drops below altitude 10° 16:48:31 10° 195° (SSW) 1,807 5.6 -7.8°
Sets 16:50:38 0° 194° (SSW) 2,695 6.6 -7.4°
